CCA3411 ZPPP-OMDB

Flight info

Callsign CCA3411
Flight time N/A
Altitude 38000
Route K0928S1100 GUL9W GULOT A599 LINSO/N0502F360 A599 CTG B465 CEA A791 JJS/N0498F380 A791 PRA A325 PARET A454 PASOV B540 MIVEK P574 IMPED IMPED3C
Aircraft A35K/H-SDE2E3GHIJ3J4J5LM1ORWXY/LB1D1

Departure

Time N/A
Airport Kunming Changshui International Airport (ZPPP)

Arrival

Time 2026-05-06 13:21
Airport Dubai International Airport (OMDB)
Time Latitude Longitude Altitude Speed Heading
2026-05-06 12:43 23.95938 59.27884 37787 ft 467 kts 257°
2026-05-06 12:43 23.94409 59.20997 37790 ft 467 kts 257°
2026-05-06 12:44 23.93678 59.14015 37788 ft 465 kts 272°
2026-05-06 12:44 23.94901 59.06983 37785 ft 466 kts 287°
2026-05-06 12:45 23.96955 59.00373 37778 ft 467 kts 288°
2026-05-06 12:46 24.00254 58.90334 37787 ft 467 kts 288°
2026-05-06 12:46 24.02401 58.83686 37784 ft 465 kts 288°
2026-05-06 12:47 24.06733 58.70103 37781 ft 465 kts 288°
2026-05-06 12:48 24.08857 58.63422 37512 ft 462 kts 288°
2026-05-06 12:48 24.09912 58.60101 37244 ft 463 kts 288°
2026-05-06 12:48 24.10990 58.56702 36980 ft 463 kts 288°
2026-05-06 12:48 24.11800 58.54142 36779 ft 464 kts 288°
2026-05-06 12:49 24.13082 58.50097 36476 ft 464 kts 288°
2026-05-06 12:49 24.14139 58.46759 36221 ft 464 kts 288°
2026-05-06 12:49 24.15175 58.43489 35991 ft 465 kts 288°
2026-05-06 12:49 24.16217 58.40194 35758 ft 465 kts 288°
2026-05-06 12:50 24.17274 58.36849 35525 ft 464 kts 288°
2026-05-06 12:50 24.18329 58.33506 35284 ft 464 kts 288°
2026-05-06 12:50 24.19385 58.30159 35055 ft 464 kts 288°
2026-05-06 12:50 24.20439 58.26812 34817 ft 464 kts 288°
2026-05-06 12:51 24.21484 58.23494 34587 ft 464 kts 288°
2026-05-06 12:51 24.22550 58.20102 34354 ft 465 kts 288°
2026-05-06 12:51 24.23577 58.16836 34136 ft 465 kts 288°
2026-05-06 12:51 24.24649 58.13419 33901 ft 465 kts 288°
2026-05-06 12:52 24.25705 58.10053 33658 ft 465 kts 288°
2026-05-06 12:52 24.26747 58.06731 33402 ft 466 kts 288°
2026-05-06 12:52 24.27792 58.03393 33148 ft 467 kts 288°
2026-05-06 12:52 24.28849 58.00016 32884 ft 468 kts 288°
2026-05-06 12:53 24.29903 57.96645 32645 ft 469 kts 288°
2026-05-06 12:53 24.30963 57.93253 32392 ft 470 kts 288°
2026-05-06 12:53 24.32023 57.89857 32144 ft 471 kts 288°
2026-05-06 12:53 24.33084 57.86454 31906 ft 471 kts 288°
2026-05-06 12:54 24.34143 57.83055 31668 ft 471 kts 288°
2026-05-06 12:54 24.35202 57.79652 31423 ft 472 kts 288°
2026-05-06 12:54 24.35902 57.77399 31260 ft 473 kts 288°
2026-05-06 12:54 24.36966 57.73974 31029 ft 474 kts 288°
2026-05-06 12:55 24.38028 57.70555 30787 ft 475 kts 288°
2026-05-06 12:55 24.39454 57.65958 30472 ft 476 kts 288°
2026-05-06 12:55 24.40521 57.62514 30243 ft 477 kts 288°
2026-05-06 12:55 24.41590 57.59062 30016 ft 479 kts 288°
2026-05-06 12:56 24.42300 57.56767 29864 ft 479 kts 288°
2026-05-06 12:56 24.43371 57.53303 29600 ft 480 kts 288°
2026-05-06 12:56 24.44444 57.49828 29331 ft 481 kts 288°
2026-05-06 12:56 24.45516 57.46354 29066 ft 480 kts 288°
2026-05-06 12:57 24.46585 57.42886 28800 ft 478 kts 288°
2026-05-06 12:57 24.47634 57.39477 28551 ft 477 kts 288°
2026-05-06 12:57 24.48695 57.36029 28305 ft 476 kts 288°
2026-05-06 12:57 24.49752 57.32591 28044 ft 476 kts 288°
2026-05-06 12:58 24.50808 57.29151 27789 ft 475 kts 288°
2026-05-06 12:58 24.51861 57.25720 27550 ft 473 kts 288°
2026-05-06 12:58 24.52910 57.22298 27292 ft 472 kts 288°
2026-05-06 12:58 24.53957 57.18880 27043 ft 471 kts 288°
2026-05-06 12:59 24.55000 57.15470 26810 ft 470 kts 288°
2026-05-06 12:59 24.56037 57.12079 26563 ft 469 kts 288°
2026-05-06 12:59 24.57077 57.08676 26324 ft 468 kts 288°
2026-05-06 12:59 24.58110 57.05291 26091 ft 468 kts 288°
2026-05-06 13:00 24.59142 57.01907 25865 ft 467 kts 288°
2026-05-06 13:00 24.60172 56.98526 25622 ft 465 kts 288°
2026-05-06 13:00 24.61187 56.95190 25395 ft 464 kts 288°
2026-05-06 13:00 24.62210 56.91828 25172 ft 463 kts 288°
2026-05-06 13:01 24.63226 56.88485 24946 ft 461 kts 288°
2026-05-06 13:01 24.64438 56.84901 24727 ft 460 kts 295°
2026-05-06 13:01 24.65804 56.82050 24709 ft 461 kts 298°
2026-05-06 13:01 24.67398 56.78990 24708 ft 461 kts 300°
2026-05-06 13:02 24.69042 56.75970 24705 ft 461 kts 301°
2026-05-06 13:02 24.70717 56.72956 24713 ft 461 kts 301°
2026-05-06 13:02 24.72394 56.69954 24713 ft 461 kts 301°
2026-05-06 13:02 24.74068 56.66953 24713 ft 461 kts 301°
2026-05-06 13:03 24.75742 56.63938 24710 ft 461 kts 301°
2026-05-06 13:03 24.77408 56.60925 24718 ft 461 kts 301°
2026-05-06 13:03 24.79053 56.57941 24724 ft 461 kts 301°
2026-05-06 13:03 24.80661 56.55021 24624 ft 455 kts 300°
2026-05-06 13:04 24.82349 56.51949 23982 ft 449 kts 300°
2026-05-06 13:04 24.85075 56.46975 22113 ft 458 kts 301°
2026-05-06 13:04 24.89174 56.30550 17770 ft 450 kts 264°
2026-05-06 13:04 24.89423 56.22048 14569 ft 411 kts 290°
2026-05-06 13:05 24.90776 56.19236 14330 ft 411 kts 300°
2026-05-06 13:05 24.92288 56.16450 13907 ft 401 kts 300°
2026-05-06 13:05 24.93644 56.13922 13347 ft 395 kts 298°
2026-05-06 13:05 24.94977 56.11386 12968 ft 384 kts 300°
2026-05-06 13:06 24.96305 56.08840 12450 ft 376 kts 299°
2026-05-06 13:06 24.97787 56.06354 11925 ft 374 kts 308°
2026-05-06 13:06 24.99496 56.04181 11788 ft 390 kts 311°
2026-05-06 13:06 25.01275 56.02013 11595 ft 394 kts 311°
2026-05-06 13:07 25.03486 55.99325 11045 ft 391 kts 311°
2026-05-06 13:07 25.04944 55.97548 10795 ft 389 kts 311°
2026-05-06 13:07 25.06705 55.95402 10600 ft 372 kts 311°
2026-05-06 13:07 25.08455 55.93269 10382 ft 353 kts 310°
2026-05-06 13:08 25.10050 55.91340 10169 ft 336 kts 314°
2026-05-06 13:08 25.11589 55.89540 9944 ft 320 kts 311°
2026-05-06 13:08 25.13158 55.87591 9488 ft 297 kts 310°
2026-05-06 13:08 25.14352 55.86088 9264 ft 292 kts 309°
2026-05-06 13:09 25.15703 55.84285 8998 ft 297 kts 303°
2026-05-06 13:09 25.16792 55.82438 8787 ft 296 kts 300°
2026-05-06 13:09 25.17856 55.80513 8549 ft 294 kts 300°
2026-05-06 13:09 25.18921 55.78587 8329 ft 293 kts 299°
2026-05-06 13:10 25.20022 55.76612 8104 ft 301 kts 299°
2026-05-06 13:10 25.21942 55.73153 7703 ft 304 kts 300°
2026-05-06 13:10 25.23941 55.69562 7270 ft 297 kts 300°
2026-05-06 13:10 25.25905 55.66035 6866 ft 297 kts 300°
2026-05-06 13:11 25.27785 55.62662 6487 ft 292 kts 300°
2026-05-06 13:11 25.28943 55.58926 6060 ft 285 kts 264°
2026-05-06 13:11 25.27319 55.55686 5868 ft 274 kts 214°
2026-05-06 13:11 25.24087 55.54959 5711 ft 272 kts 166°
2026-05-06 13:12 25.21444 55.57224 5564 ft 277 kts 117°
2026-05-06 13:12 25.19959 55.60696 5414 ft 279 kts 120°
2026-05-06 13:12 25.18190 55.64004 5276 ft 278 kts 122°
2026-05-06 13:12 25.16387 55.67258 5115 ft 278 kts 122°
2026-05-06 13:13 25.14572 55.70525 4970 ft 279 kts 122°
2026-05-06 13:13 25.12728 55.73826 4822 ft 278 kts 122°
2026-05-06 13:13 25.10881 55.77143 4662 ft 278 kts 122°
2026-05-06 13:13 25.09048 55.80411 4505 ft 276 kts 122°
2026-05-06 13:14 25.07428 55.83137 4379 ft 274 kts 130°
2026-05-06 13:14 25.04466 55.84746 4236 ft 273 kts 178°
2026-05-06 13:14 25.01450 55.83310 4108 ft 278 kts 228°
2026-05-06 13:14 25.00635 55.79698 4053 ft 281 kts 283°
2026-05-06 13:15 25.02619 55.76542 3930 ft 277 kts 313°
2026-05-06 13:15 25.04674 55.73431 3745 ft 274 kts 302°
2026-05-06 13:15 25.06526 55.70154 3598 ft 274 kts 301°
2026-05-06 13:15 25.08350 55.66899 3435 ft 272 kts 302°
2026-05-06 13:16 25.09486 55.64859 3339 ft 269 kts 302°
2026-05-06 13:16 25.10668 55.62746 3213 ft 250 kts 302°
2026-05-06 13:16 25.12224 55.59954 3007 ft 225 kts 302°
2026-05-06 13:16 25.13616 55.57445 2856 ft 200 kts 302°
2026-05-06 13:17 25.14910 55.55130 2731 ft 197 kts 303°
2026-05-06 13:17 25.15806 55.53518 2694 ft 194 kts 302°
2026-05-06 13:17 25.16462 55.52355 2585 ft 193 kts 304°
2026-05-06 13:17 25.17168 55.51103 2345 ft 188 kts 300°
2026-05-06 13:18 25.17854 55.49853 2097 ft 183 kts 302°
2026-05-06 13:18 25.18544 55.48612 1856 ft 177 kts 302°
2026-05-06 13:18 25.19125 55.47567 1653 ft 174 kts 302°
2026-05-06 13:18 25.19749 55.46437 1411 ft 169 kts 304°
2026-05-06 13:19 25.20354 55.45350 1220 ft 165 kts 306°
2026-05-06 13:19 25.20956 55.44266 1008 ft 165 kts 304°
2026-05-06 13:19 25.21549 55.43197 805 ft 157 kts 302°
2026-05-06 13:19 25.22076 55.42242 641 ft 141 kts 303°
2026-05-06 13:20 25.22553 55.41377 493 ft 127 kts 306°
2026-05-06 13:20 25.23035 55.40539 307 ft 131 kts 302°
2026-05-06 13:20 25.23484 55.39656 121 ft 131 kts 304°
2026-05-06 13:20 25.23962 55.38822 38 ft 126 kts 303°
2026-05-06 13:21 25.24371 55.38087 32 ft 96 kts 301°
2026-05-06 13:21 25.24649 55.37574 24 ft 60 kts 300°
2026-05-06 13:21 25.24774 55.37281 23 ft 25 kts 282°
2026-05-06 13:21 25.24782 55.37181 20 ft 13 kts 271°
2026-05-06 13:22 25.24750 55.37102 24 ft 1 kts 199°
2026-05-06 13:22 25.24743 55.37105 25 ft 1 kts 166°
2026-05-06 13:22 25.24730 55.37111 26 ft 2 kts 156°
2026-05-06 13:22 25.24725 55.37113 26 ft 0 kts 155°
2026-05-06 13:23 25.24717 55.37120 28 ft 4 kts 143°
2026-05-06 13:23 25.24705 55.37128 27 ft 0 kts 149°
2026-05-06 13:23 25.24704 55.37129 27 ft 0 kts 149°
2026-05-06 13:24 25.24691 55.37137 31 ft 2 kts 155°
2026-05-06 13:24 25.24643 55.37169 36 ft 25 kts 149°
2026-05-06 13:24 25.24610 55.37185 37 ft 6 kts 159°
2026-05-06 13:24 25.24554 55.37192 38 ft 10 kts 198°
2026-05-06 13:25 25.24475 55.37142 39 ft 11 kts 211°
2026-05-06 13:25 25.24472 55.37140 39 ft 0 kts 211°